Powrót do katalogu

STARLINK-3176

AktywnyŁącznośćVLEO
NORAD 51106·PAYLOAD·🇺🇸 United States

Wystrzelony Jan 19, 2022 z Cape Canaveral Space Force Station

Loading…

Następne Przeloty (najbliższe 24 godziny)

TLE

ŚwieżeSource: CelesTrak SupGP

Epoka: Sep 14, 2026, 21:52 UTC

1 51106C 22005C   26257.91159722 -.00020797  00000+0 -59512-3 0  2578
2 51106  53.1582 151.9295 0001154 101.6227 159.8669 15.35403568    16

Śledź STARLINK-3176 w czasie rzeczywistym z AllMySat

Download on the App Store